Date String (YYYY-MM-DD hh:mm:ss) UTC,Instrument flags,absolute air pressure of the measurement (hPa),sample flow rate (lpm),inlet stack bypass flow (lpm),air temperature of the measurement (°C),ambient temperature measured by the external sensor (°C),aerosol sample conditioner tube jacket temperature (°C),OPC LED temperature (°C),internal box temperature (°C),relative humidity of the measurement (%),span deviation,mass concentration of particles derived from Lorenz-Mie calculation of OPC scattering (μg/m³),mass concentration of particles derived from Lorenz-Mie calculation of OPC scattering (μg/m³),mass concentration of particles derived from Lorenz-Mie calculation of OPC scattering (μg/m³)
DateTimeUTC,F1_M11,P_M11,Q1_M11,Q2_M11,T1_M11,T2_M11,T3_M11,T4_M11,T5_M11,U1_M11,ZSPAN_M11,X0_M11,X2_M11,X1_M11
2024-04-25 23:00:00,SystemResetWarning,0817.5,5.00,000.00,025.3,024.6,000.0,033.6,027.2,015.6,0000.0,0008.72,0003.45,0002.45
2024-04-25 23:01:00,SystemResetWarning,0817.5,4.99,000.00,025.3,024.7,000.0,033.6,027.2,015.7,0000.0,0008.63,0003.41,0002.42
2024-04-25 23:02:00,SystemResetWarning,0817.5,5.00,000.00,025.4,024.7,000.0,033.6,027.3,015.9,0000.0,0008.16,0003.38,0002.40
2024-04-25 23:03:00,SystemResetWarning,0817.5,5.00,000.00,025.4,024.8,000.0,033.6,027.3,016.0,0000.0,0006.86,0003.37,0002.37
2024-04-25 23:04:00,SystemResetWarning,0817.5,4.99,000.00,025.5,024.9,000.0,033.6,027.3,016.1,0000.0,0006.96,0003.37,0002.34
2024-04-25 23:05:00,SystemResetWarning,0817.5,5.00,000.00,025.5,024.9,000.0,033.7,027.4,016.4,0000.0,0006.79,0003.31,0002.30
2024-04-25 23:06:00,SystemResetWarning,0817.6,5.00,000.00,025.5,025.0,000.0,033.7,027.4,017.1,0000.0,0006.75,0003.28,0002.27
2024-04-25 23:07:00,SystemResetWarning,0817.6,5.00,000.00,025.6,025.0,000.0,033.7,027.4,017.4,0000.0,0007.18,0003.27,0002.26
2024-04-25 23:08:00,SystemResetWarning,0817.6,5.00,000.00,025.6,025.0,000.0,033.8,027.5,017.1,0000.0,0007.39,0003.26,0002.26
2024-04-25 23:09:00,SystemResetWarning,0817.7,5.00,000.00,025.6,025.1,000.0,033.8,027.5,017.1,0000.0,0007.45,0003.27,0002.26
2024-04-25 23:10:00,SystemResetWarning,0817.7,5.01,000.00,025.7,025.1,000.0,033.8,027.5,017.2,0000.0,0007.70,0003.22,0002.24
2024-04-25 23:11:00,SystemResetWarning,0817.8,5.01,000.00,025.7,025.1,000.0,033.9,027.6,017.2,0000.0,0008.08,0003.18,0002.23
2024-04-25 23:12:00,SystemResetWarning,0817.8,4.99,000.00,025.6,024.3,000.0,033.9,027.1,017.4,0000.0,0008.11,0003.19,0002.25
2024-04-25 23:13:00,SystemResetWarning,0817.6,5.01,000.00,025.3,022.4,000.0,033.9,026.1,017.7,0000.0,0007.92,0003.16,0002.24
2024-04-25 23:14:00,SystemResetWarning,0817.7,5.01,000.00,025.0,022.3,000.0,033.9,025.8,017.9,0000.0,0007.73,0003.12,0002.24
2024-04-25 23:15:00,SystemResetWarning,0817.7,5.00,000.00,024.9,022.6,000.0,033.7,026.0,018.1,0000.0,0007.56,0003.08,0002.25
2024-04-25 23:16:00,SystemResetWarning,0817.7,5.00,000.00,024.9,022.9,000.0,033.6,026.3,018.1,0000.0,0007.62,0003.11,0002.27
2024-04-25 23:17:00,SystemResetWarning,0817.7,4.99,000.00,024.9,023.2,000.0,033.6,026.5,017.6,0000.0,0007.60,0003.12,0002.29
2024-04-25 23:18:00,SystemResetWarning,0817.7,5.00,000.00,025.0,023.5,000.0,033.6,026.6,017.5,0000.0,0007.78,0003.13,0002.31
2024-04-25 23:19:00,SystemResetWarning,0817.7,5.00,000.00,025.0,023.7,000.0,033.5,026.7,017.5,0000.0,0007.66,0003.15,0002.34
2024-04-25 23:20:00,SystemResetWarning,0817.7,5.00,000.00,025.0,023.9,000.0,033.5,026.8,017.6,0000.0,0007.63,0003.15,0002.36
2024-04-25 23:21:00,SystemResetWarning,0817.8,4.99,000.00,025.1,024.0,000.0,033.5,026.9,018.1,0000.0,0007.26,0003.17,0002.40
2024-04-25 23:22:00,SystemResetWarning,0817.7,4.99,000.00,025.1,024.2,000.0,033.5,026.9,017.6,0000.0,0006.41,0003.17,0002.41
2024-04-25 23:23:00,SystemResetWarning,0817.8,5.00,000.00,025.1,024.3,000.0,033.5,027.0,017.8,0000.0,0006.40,0003.18,0002.40
2024-04-25 23:24:00,SystemResetWarning,0817.8,5.01,000.00,025.2,024.4,000.0,033.5,027.0,018.0,0000.0,0006.71,0003.21,0002.41
2024-04-25 23:25:00,SystemResetWarning,0817.8,5.00,000.00,025.2,024.5,000.0,033.5,027.0,017.9,0000.0,0007.70,0003.23,0002.44
2024-04-25 23:26:00,SystemResetWarning,0817.7,4.99,000.00,025.2,024.5,000.0,033.5,027.1,017.6,0000.0,0007.80,0003.28,0002.48
2024-04-25 23:27:00,SystemResetWarning,0817.7,5.00,000.00,025.2,024.6,000.0,033.6,027.1,017.5,0000.0,0007.85,0003.30,0002.51
2024-04-25 23:28:00,SystemResetWarning,0817.8,5.00,000.00,025.3,024.6,000.0,033.6,027.1,017.8,0000.0,0008.25,0003.33,0002.52
2024-04-25 23:29:00,SystemResetWarning,0817.8,5.00,000.00,025.3,024.6,000.0,033.6,027.1,017.8,0000.0,0008.23,0003.36,0002.55
2024-04-25 23:30:00,SystemResetWarning,0817.8,5.01,000.00,025.3,024.6,000.0,033.6,027.1,017.8,0000.0,0007.83,0003.38,0002.57
2024-04-25 23:31:00,SystemResetWarning,0817.7,5.01,000.00,025.3,024.6,000.0,033.6,027.1,018.0,0000.0,0007.82,0003.38,0002.58
2024-04-25 23:32:00,SystemResetWarning,0817.8,4.99,000.00,025.3,024.7,000.0,033.6,027.1,018.2,0000.0,0008.25,0003.39,0002.58
2024-04-25 23:33:00,SystemResetWarning,0817.7,4.99,000.00,025.3,024.7,000.0,033.6,027.2,018.2,0000.0,0008.42,0003.42,0002.59
2024-04-25 23:34:00,SystemResetWarning,0817.7,4.99,000.00,025.4,024.7,000.0,033.7,027.2,017.8,0000.0,0008.51,0003.45,0002.59
2024-04-25 23:35:00,SystemResetWarning,0817.8,5.00,000.00,025.4,024.7,000.0,033.7,027.2,017.7,0000.0,0008.71,0003.47,0002.61
2024-04-25 23:36:00,SystemResetWarning,0817.8,5.00,000.00,025.4,024.7,000.0,033.7,027.2,017.6,0000.0,0008.57,0003.46,0002.61
2024-04-25 23:37:00,SystemResetWarning,0817.8,5.00,000.00,025.4,024.8,000.0,033.7,027.2,017.2,0000.0,0008.16,0003.45,0002.58
2024-04-25 23:38:00,SystemResetWarning,0817.8,5.00,000.00,025.4,024.8,000.0,033.7,027.2,017.2,0000.0,0008.11,0003.43,0002.56
2024-04-25 23:39:00,SystemResetWarning,0817.8,5.00,000.00,025.4,024.8,000.0,033.7,027.2,017.3,0000.0,0007.79,0003.43,0002.55
2024-04-25 23:40:00,SystemResetWarning,0817.8,5.00,000.00,025.4,024.8,000.0,033.7,027.2,017.4,0000.0,0008.12,0003.40,0002.51
2024-04-25 23:41:00,SystemResetWarning,0818.0,5.00,000.00,025.4,024.8,000.0,033.8,027.2,017.6,0000.0,0008.39,0003.37,0002.46
2024-04-25 23:42:00,SystemResetWarning,0817.9,5.00,000.00,025.4,024.8,000.0,033.8,027.2,017.2,0000.0,0008.56,0003.33,0002.44
2024-04-25 23:43:00,SystemResetWarning,0817.9,5.00,000.00,025.4,024.8,000.0,033.8,027.2,016.4,0000.0,0008.08,0003.30,0002.39
2024-04-25 23:44:00,SystemResetWarning,0817.8,5.00,000.00,025.4,024.8,000.0,033.8,027.2,017.1,0000.0,0008.04,0003.28,0002.35
2024-04-25 23:45:00,SystemResetWarning,0817.8,5.00,000.00,025.4,024.8,000.0,033.8,027.2,017.6,0000.0,0009.09,0003.30,0002.34
2024-04-25 23:46:00,SystemResetWarning,0817.8,5.00,000.00,025.4,024.8,000.0,033.8,027.2,017.7,0000.0,0008.94,0003.27,0002.33
2024-04-25 23:47:00,SystemResetWarning,0817.8,5.00,000.00,025.4,024.7,000.0,033.8,027.2,018.1,0000.0,0008.64,0003.28,0002.35
2024-04-25 23:48:00,SystemResetWarning,0817.7,5.00,000.00,025.4,024.7,000.0,033.8,027.2,018.4,0000.0,0009.10,0003.33,0002.38
2024-04-25 23:49:00,SystemResetWarning,0817.8,5.00,000.00,025.4,024.7,000.0,033.8,027.2,018.6,0000.0,0009.42,0003.37,0002.41
2024-04-25 23:50:00,SystemResetWarning,0817.8,5.00,000.00,025.4,024.7,000.0,033.8,027.2,018.1,0000.0,0009.81,0003.43,0002.45
2024-04-25 23:51:00,SystemResetWarning,0817.8,5.00,000.00,025.4,024.7,000.0,033.8,027.1,017.6,0000.0,0009.49,0003.46,0002.48
2024-04-25 23:52:00,SystemResetWarning,0817.8,5.00,000.00,025.4,024.7,000.0,033.8,027.1,018.1,0000.0,0009.67,0003.49,0002.51
2024-04-25 23:53:00,SystemResetWarning,0817.8,5.00,000.00,025.4,024.7,000.0,033.8,027.1,018.1,0000.0,0009.63,0003.50,0002.53
2024-04-25 23:54:00,SystemResetWarning,0817.7,5.00,000.00,025.4,024.6,000.0,033.8,027.1,018.2,0000.0,0009.88,0003.54,0002.56
2024-04-25 23:55:00,SystemResetWarning,0817.7,4.99,000.00,025.4,024.6,000.0,033.8,027.1,017.4,0000.0,0010.00,0003.56,0002.61
2024-04-25 23:56:00,SystemResetWarning,0817.8,5.00,000.00,025.4,024.6,000.0,033.8,027.1,017.5,0000.0,0009.17,0003.57,0002.69
2024-04-25 23:57:00,SystemResetWarning,0817.7,5.00,000.00,025.3,024.6,000.0,033.8,027.1,017.9,0000.0,0009.28,0003.65,0002.77
2024-04-25 23:58:00,SystemResetWarning,0817.7,5.00,000.00,025.3,024.6,000.0,033.8,027.0,018.6,0000.0,0009.61,0003.70,0002.85
2024-04-25 23:59:00,SystemResetWarning,0817.7,5.00,000.00,025.3,024.6,000.0,033.8,027.0,019.0,0000.0,0009.40,0003.71,0002.91
